Погода в Катырыке

Россия / Красноярский край     71˚16′28″N   99˚23′14″E
темп.,
°C
ветер,
м/с
пор.,
м/с
влажн.,
%
обл.,
%
осадки,
мм/ч
давл.,
гПа
погр.,
м
18 января, пн
пн1801:00−31˚в813810 0.0 1022252
04:00−31˚вюв915800 0.0 1021264
07:00−31˚вюв915800 0.0 1021262
10:00−32˚вюв712830 0.0 1020214
13:00−33˚в712820 0.0 1020197
16:00−33˚в712820 0.0 1020210
19:00−34˚в610830 0.0 1021173
22:00−35˚в610840 0.0 1020163
19 января, вт
вт1901:00−35˚в610850 0.0 1021163
04:00−37˚в510870 0.0 1021140
07:00−38˚в59870 0.0 1021128
10:00−39˚в57880 0.0 1021109
13:00−40˚всв47870 0.0 102287
16:00−40˚в47860 0.0 102282
19:00−41˚в45840 0.0 102370
22:00−41˚в45830 0.0 102352
20 января, ср
ср2001:00−42˚в34820 0.0 102434
04:00−42˚в33820 0.0 102424
07:00−42˚в238212 0.0 102518
10:00−40˚в228296 0.0 102418
13:00−40˚юв119198 0.0 102418
16:00−39˚ююв1295100 0.0 102521
19:00−40˚ю2296100 0.1 102518
22:00−42˚ю229692 0.0 102618
21 января, чт
чт2101:00−43˚ююв239282 0.0 102718
04:00−44˚юв238433 0.0 102818
07:00−44˚вюв238318 0.0 102918
10:00−45˚вюв22840 0.0 103118
13:00−45˚в22840 0.0 103218
16:00−46˚в228419 0.0 103318
19:00−46˚всв228530 0.0 103318
22:00−46˚в228554 0.0 103318
22 января, пт
пт2201:00−46˚всв128628 0.0 103318
04:00−46˚всв128617 0.0 103218
07:00−45˚в128636 0.0 103118
10:00−45˚всв128524 0.0 103018
13:00−44˚в228631 0.0 102818
16:00−43˚всв228637 0.0 102818
19:00−42˚в238544 0.0 102618
22:00−42˚в228363 0.0 102518